| time (UTC) | temp C | wind direction | speed KPH | gust KPH | rain 1hr cm | rain 24hr cm | rain mn cm | humidity % | barometer mb |
| 20260507201020 | 10 | 307 | 22.5 | 35.4 | 0.00 | 0.10 | 0.00 | 39 | 1008.5 |
| 20260507200520 | 9 | 310 | 17.7 | 32.2 | 0.00 | 0.10 | 0.00 | 40 | 1008.4 |
| 20260507200023 | 9 | 247 | 11.3 | 35.4 | 0.00 | 0.10 | 0.00 | 43 | 1008.5 |
| 20260507195520 | 9 | 331 | 22.5 | 35.4 | 0.00 | 0.15 | 0.00 | 42 | 1008.6 |
| 20260507195018 | 9 | 319 | 14.5 | 29.0 | 0.00 | 0.15 | 0.00 | 39 | 1008.6 |
| 20260507194518 | 9 | 294 | 17.7 | 30.6 | 0.00 | 0.15 | 0.00 | 38 | 1008.7 |
| 20260507194017 | 9 | 267 | 9.7 | 35.4 | 0.00 | 0.15 | 0.00 | 39 | 1008.7 |
| 20260507193517 | 10 | 311 | 20.9 | 35.4 | 0.00 | 0.15 | 0.00 | 41 | 1008.7 |
| 20260507193017 | 10 | 320 | 11.3 | 29.0 | 0.00 | 0.15 | 0.00 | 40 | 1008.8 |
| 20260507192515 | 9 | 321 | 16.1 | 25.7 | 0.00 | 0.15 | 0.00 | 43 | 1008.8 |
| 20260507192015 | 9 | 315 | 16.1 | 32.2 | 0.00 | 0.15 | 0.00 | 40 | 1008.9 |
| 20260507191515 | 10 | 315 | 19.3 | 32.2 | 0.00 | 0.15 | 0.00 | 40 | 1008.8 |
| 20260507191014 | 9 | 261 | 16.1 | 32.2 | 0.00 | 0.15 | 0.00 | 38 | 1009.0 |
| 20260507190514 | 9 | 286 | 17.7 | 30.6 | 0.00 | 0.15 | 0.00 | 44 | 1009.1 |
| 20260507190015 | 9 | 280 | 20.9 | 30.6 | 0.00 | 0.15 | 0.00 | 43 | 1009.0 |
| 20260507185514 | 9 | 301 | 16.1 | 30.6 | 0.00 | 0.18 | 0.00 | 44 | 1009.1 |
| 20260507185014 | 9 | 326 | 16.1 | 30.6 | 0.00 | 0.18 | 0.00 | 41 | 1009.1 |
| 20260507184514 | 9 | 296 | 14.5 | 32.2 | 0.00 | 0.18 | 0.00 | 46 | 1009.1 |
| 20260507184013 | 9 | 297 | 14.5 | 40.2 | 0.00 | 0.18 | 0.00 | 46 | 1009.2 |
| 20260507183519 | 9 | 303 | 17.7 | 33.8 | 0.00 | 0.18 | 0.00 | 47 | 1009.2 |
| 20260507183021 | 8 | 289 | 17.7 | 33.8 | 0.00 | 0.18 | 0.00 | 44 | 1009.4 |
| 20260507182510 | 8 | 240 | 14.5 | 35.4 | 0.00 | 0.18 | 0.00 | 47 | 1009.4 |
| 20260507182010 | 8 | 318 | 17.7 | 35.4 | 0.00 | 0.18 | 0.00 | 46 | 1009.5 |
| 20260507181510 | 8 | 301 | 17.7 | 33.8 | 0.00 | 0.18 | 0.00 | 47 | 1009.4 |
| 20260507181009 | 8 | 279 | 14.5 | 33.8 | 0.00 | 0.18 | 0.00 | 48 | 1009.5 |
| 20260507180509 | 8 | 274 | 3.2 | 32.2 | 0.00 | 0.18 | 0.00 | 48 | 1009.6 |
| 20260507180009 | 8 | 241 | 17.7 | 32.2 | 0.00 | 0.18 | 0.00 | 56 | 1009.6 |
| 20260507175511 | 8 | 298 | 11.3 | 29.0 | 0.00 | 0.18 | 0.00 | 56 | 1009.7 |
| 20260507175009 | 8 | 310 | 19.3 | 33.8 | 0.00 | 0.18 | 0.00 | 54 | 1009.7 |
| 20260507174511 | 8 | 319 | 20.9 | 33.8 | 0.00 | 0.18 | 0.00 | 54 | 1009.6 |
| 20260507174008 | 7 | 271 | 16.1 | 24.1 | 0.00 | 0.18 | 0.00 | 51 | 1009.7 |
| 20260507173508 | 8 | 286 | 9.7 | 30.6 | 0.00 | 0.18 | 0.00 | 55 | 1009.7 |
| 20260507173008 | 8 | 307 | 19.3 | 30.6 | 0.00 | 0.18 | 0.00 | 52 | 1009.7 |
| 20260507172507 | 8 | 303 | 6.4 | 32.2 | 0.00 | 0.18 | 0.00 | 53 | 1009.8 |
| 20260507172005 | 8 | 287 | 17.7 | 32.2 | 0.00 | 0.18 | 0.00 | 56 | 1009.9 |
| 20260507171505 | 7 | 293 | 17.7 | 27.4 | 0.00 | 0.18 | 0.00 | 52 | 1009.9 |
| 20260507171006 | 8 | 267 | 14.5 | 27.4 | 0.00 | 0.18 | 0.00 | 54 | 1009.9 |
| 20260507170504 | 7 | 311 | 16.1 | 29.0 | 0.00 | 0.18 | 0.00 | 57 | 1009.9 |
| 20260507170005 | 7 | 286 | 17.7 | 29.0 | 0.00 | 0.18 | 0.00 | 57 | 1009.9 |
| 20260507165503 | 7 | 287 | 6.4 | 24.1 | 0.00 | 0.25 | 0.00 | 56 | 1009.9 |
| 20260507165003 | 7 | 285 | 14.5 | 29.0 | 0.00 | 0.25 | 0.00 | 55 | 1009.9 |
| 20260507164502 | 7 | 292 | 14.5 | 29.0 | 0.00 | 0.25 | 0.00 | 57 | 1010.1 |
| 20260507164003 | 7 | 293 | 16.1 | 25.7 | 0.00 | 0.25 | 0.00 | 57 | 1010.1 |
| 20260507163503 | 6 | 280 | 9.7 | 29.0 | 0.00 | 0.25 | 0.00 | 59 | 1010.2 |
| 20260507163002 | 6 | 327 | 19.3 | 27.4 | 0.00 | 0.25 | 0.00 | 56 | 1010.2 |
| 20260507162501 | 6 | 324 | 12.9 | 22.5 | 0.00 | 0.25 | 0.00 | 56 | 1010.3 |
| 20260507162000 | 6 | 275 | 14.5 | 24.1 | 0.00 | 0.25 | 0.00 | 56 | 1010.3 |
| 20260507161502 | 6 | 317 | 14.5 | 33.8 | 0.00 | 0.25 | 0.00 | 57 | 1010.3 |
| 20260507161100 | 6 | 301 | 3.2 | 33.8 | 0.00 | 0.25 | 0.00 | 56 | 1010.3 |
| 20260507160600 | 7 | 319 | 14.5 | 22.5 | 0.00 | 0.25 | 0.00 | 54 | 1010.3 |
| 20260507160100 | 7 | 320 | 11.3 | 22.5 | 0.00 | 0.25 | 0.00 | 56 | 1010.4 |
| 20260507155600 | 7 | 300 | 11.3 | 22.5 | 0.00 | 0.33 | 0.00 | 58 | 1010.4 |
| 20260507155100 | 7 | 257 | 8.0 | 24.1 | 0.00 | 0.33 | 0.00 | 55 | 1010.4 |
| 20260507154602 | 6 | 287 | 12.9 | 24.1 | 0.00 | 0.33 | 0.00 | 57 | 1010.6 |
| 20260507154100 | 6 | 307 | 8.0 | 32.2 | 0.00 | 0.33 | 0.00 | 56 | 1010.6 |
| 20260507153559 | 6 | 311 | 17.7 | 32.2 | 0.00 | 0.33 | 0.00 | 57 | 1010.7 |
| 20260507153105 | 7 | 323 | 14.5 | 22.5 | 0.00 | 0.33 | 0.00 | 58 | 1010.8 |
| 20260507152559 | 6 | 205 | 11.3 | 29.0 | 0.00 | 0.33 | 0.00 | 57 | 1010.8 |
| 20260507152100 | 6 | 278 | 14.5 | 29.0 | 0.00 | 0.33 | 0.00 | 57 | 1010.8 |
| 20260507151558 | 6 | 312 | 12.9 | 32.2 | 0.00 | 0.33 | 0.00 | 56 | 1010.8 |
| 20260507151057 | 6 | 290 | 16.1 | 32.2 | 0.00 | 0.33 | 0.00 | 55 | 1010.8 |
| 20260507150557 | 6 | 278 | 11.3 | 29.0 | 0.00 | 0.33 | 0.00 | 55 | 1010.9 |
| 20260507150100 | 6 | 270 | 19.3 | 29.0 | 0.00 | 0.33 | 0.00 | 56 | 1011.0 |
| 20260507145556 | 7 | 283 | 6.4 | 20.9 | 0.00 | 0.43 | 0.00 | 58 | 1011.1 |
| 20260507145054 | 6 | 313 | 9.7 | 30.6 | 0.00 | 0.43 | 0.00 | 61 | 1011.1 |
| 20260507144555 | 6 | 317 | 16.1 | 30.6 | 0.00 | 0.43 | 0.00 | 59 | 1011.0 |
| 20260507144054 | 6 | 285 | 14.5 | 27.4 | 0.00 | 0.43 | 0.00 | 60 | 1011.1 |
| 20260507143553 | 6 | 311 | 19.3 | 32.2 | 0.00 | 0.43 | 0.00 | 56 | 1011.1 |
| 20260507143153 | 6 | 288 | 17.7 | 32.2 | 0.00 | 0.43 | 0.00 | 56 | 1011.1 |
| 20260507142552 | 6 | 305 | 16.1 | 30.6 | 0.00 | 0.43 | 0.00 | 57 | 1011.0 |
| 20260507142050 | 6 | 334 | 14.5 | 25.7 | 0.00 | 0.43 | 0.00 | 58 | 1011.0 |
| 20260507141550 | 6 | 290 | 12.9 | 29.0 | 0.00 | 0.43 | 0.00 | 61 | 1010.9 |
| 20260507141049 | 6 | 315 | 17.7 | 29.0 | 0.00 | 0.43 | 0.00 | 56 | 1010.9 |
| 20260507140548 | 5 | 289 | 14.5 | 30.6 | 0.00 | 0.43 | 0.00 | 56 | 1010.8 |
| 20260507140058 | 6 | 322 | 16.1 | 30.6 | 0.00 | 0.43 | 0.00 | 56 | 1010.9 |
| 20260507135547 | 6 | 273 | 14.5 | 29.0 | 0.00 | 0.56 | 0.00 | 57 | 1010.9 |
| 20260507135043 | 6 | 286 | 11.3 | 24.1 | 0.00 | 0.56 | 0.00 | 60 | 1010.8 |
| 20260507134542 | 6 | 295 | 14.5 | 22.5 | 0.00 | 0.56 | 0.00 | 58 | 1010.8 |
| 20260507134040 | 5 | 309 | 9.7 | 22.5 | 0.00 | 0.56 | 0.00 | 56 | 1010.8 |
| 20260507133539 | 5 | 296 | 8.0 | 24.1 | 0.00 | 0.56 | 0.00 | 57 | 1011.0 |
| 20260507133038 | 5 | 329 | 16.1 | 27.4 | 0.00 | 0.56 | 0.00 | 57 | 1010.9 |
| 20260507132536 | 5 | 330 | 16.1 | 29.0 | 0.00 | 0.56 | 0.00 | 57 | 1011.0 |
| 20260507132035 | 5 | 321 | 20.9 | 29.0 | 0.00 | 0.56 | 0.00 | 57 | 1010.9 |
| 20260507131536 | 5 | 296 | 12.9 | 24.1 | 0.00 | 0.56 | 0.00 | 59 | 1011.0 |
| 20260507131034 | 5 | 294 | 14.5 | 20.9 | 0.00 | 0.56 | 0.00 | 61 | 1010.9 |
| 20260507130534 | 5 | 273 | 12.9 | 20.9 | 0.00 | 0.56 | 0.00 | 59 | 1010.9 |
| 20260507130034 | 5 | 292 | 11.3 | 17.7 | 0.00 | 0.56 | 0.00 | 60 | 1011.0 |
| 20260507125531 | 5 | 288 | 8.0 | 24.1 | 0.00 | 0.58 | 0.00 | 62 | 1010.9 |
| 20260507125031 | 4 | 279 | 12.9 | 24.1 | 0.00 | 0.58 | 0.00 | 63 | 1010.8 |
| 20260507124546 | 4 | 306 | 14.5 | 24.1 | 0.00 | 0.58 | 0.00 | 62 | 1011.0 |
| 20260507124031 | 4 | 295 | 11.3 | 24.1 | 0.00 | 0.58 | 0.00 | 62 | 1010.9 |
| 20260507123529 | 4 | 282 | 8.0 | 22.5 | 0.00 | 0.58 | 0.00 | 65 | 1010.9 |
| 20260507123030 | 3 | 286 | 11.3 | 24.1 | 0.00 | 0.58 | 0.00 | 66 | 1010.9 |
| 20260507122527 | 3 | 325 | 17.7 | 24.1 | 0.00 | 0.58 | 0.00 | 64 | 1010.8 |
| 20260507122026 | 3 | 270 | 12.9 | 24.1 | 0.00 | 0.58 | 0.00 | 68 | 1010.7 |
| 20260507121525 | 3 | 309 | 12.9 | 17.7 | 0.00 | 0.58 | 0.00 | 66 | 1010.7 |
| 20260507121024 | 3 | 310 | 11.3 | 19.3 | 0.00 | 0.58 | 0.00 | 67 | 1010.8 |
| 20260507120524 | 3 | 307 | 11.3 | 19.3 | 0.00 | 0.58 | 0.00 | 67 | 1010.7 |
| 20260507120021 | 3 | 304 | 11.3 | 16.1 | 0.00 | 0.58 | 0.00 | 69 | 1010.6 |
| 20260507115520 | 3 | 224 | 9.7 | 17.7 | 0.00 | 0.61 | 0.00 | 70 | 1010.5 |
| 20260507115021 | 3 | 298 | 9.7 | 17.7 | 0.00 | 0.61 | 0.00 | 69 | 1010.4 |
| 20260507114517 | 3 | 246 | 4.8 | 17.7 | 0.00 | 0.61 | 0.00 | 70 | 1010.5 |
| 20260507114016 | 3 | 305 | 4.8 | 14.5 | 0.00 | 0.61 | 0.00 | 71 | 1010.5 |
| 20260507113515 | 2 | 296 | 6.4 | 16.1 | 0.00 | 0.61 | 0.00 | 71 | 1010.6 |
| 20260507113017 | 2 | 285 | 4.8 | 16.1 | 0.00 | 0.61 | 0.00 | 72 | 1010.5 |
| 20260507112511 | 2 | 257 | 4.8 | 14.5 | 0.00 | 0.61 | 0.00 | 73 | 1010.6 |
| 20260507112009 | 2 | 302 | 3.2 | 12.9 | 0.00 | 0.61 | 0.00 | 73 | 1010.4 |
| 20260507111513 | 2 | 291 | 4.8 | 17.7 | 0.00 | 0.61 | 0.00 | 73 | 1010.5 |
| 20260507111006 | 2 | 314 | 9.7 | 17.7 | 0.00 | 0.61 | 0.00 | 72 | 1010.5 |
| 20260507110505 | 2 | 292 | 4.8 | 14.5 | 0.00 | 0.61 | 0.00 | 75 | 1010.5 |
| 20260507110011 | 1 | 264 | 6.4 | 17.7 | 0.00 | 0.61 | 0.00 | 76 | 1010.3 |
| 20260507105502 | 1 | 264 | 4.8 | 19.3 | 0.00 | 0.66 | 0.00 | 77 | 1010.1 |
| 20260507105103 | 1 | 229 | 3.2 | 19.3 | 0.00 | 0.66 | 0.00 | 77 | 1010.0 |
| 20260507104600 | 1 | 281 | 8.0 | 17.7 | 0.00 | 0.66 | 0.00 | 78 | 1010.0 |
| 20260507104059 | 1 | 239 | 6.4 | 17.7 | 0.00 | 0.66 | 0.00 | 80 | 1010.0 |
| 20260507103558 | 1 | 272 | 4.8 | 14.5 | 0.00 | 0.66 | 0.00 | 82 | 1009.8 |
| 20260507103056 | 1 | 246 | 1.6 | 11.3 | 0.00 | 0.66 | 0.00 | 82 | 1009.7 |
| 20260507102555 | 1 | 279 | 1.6 | 8.0 | 0.00 | 0.66 | 0.00 | 84 | 1009.7 |
| 20260507102054 | 1 | 292 | 1.6 | 9.7 | 0.00 | 0.66 | 0.00 | 85 | 1009.7 |
| 20260507101558 | 0 | 288 | 1.6 | 6.4 | 0.00 | 0.66 | 0.00 | 86 | 1009.7 |
| 20260507101055 | 0 | 275 | 0.0 | 6.4 | 0.00 | 0.66 | 0.00 | 86 | 1009.7 |
| 20260507100553 | 0 | 269 | 0.0 | 6.4 | 0.00 | 0.66 | 0.00 | 86 | 1009.8 |
| 20260507100056 | 0 | 254 | 0.0 | 12.9 | 0.00 | 0.66 | 0.00 | 86 | 1009.7 |
| 20260507095554 | 0 | 235 | 1.6 | 12.9 | 0.00 | 0.71 | 0.00 | 86 | 1009.8 |
| 20260507095052 | 1 | 286 | 0.0 | 4.8 | 0.00 | 0.71 | 0.00 | 86 | 1009.7 |
| 20260507094551 | 1 | 283 | 0.0 | 4.8 | 0.00 | 0.71 | 0.00 | 86 | 1009.7 |
| 20260507094053 | 1 | 282 | 0.0 | 4.8 | 0.00 | 0.71 | 0.00 | 86 | 1009.8 |
| 20260507093552 | 1 | 278 | 0.0 | 4.8 | 0.00 | 0.71 | 0.00 | 86 | 1009.9 |
| 20260507093050 | 1 | 278 | 0.0 | 4.8 | 0.00 | 0.71 | 0.00 | 86 | 1009.9 |
| 20260507092551 | 1 | 277 | 0.0 | 4.8 | 0.00 | 0.71 | 0.00 | 86 | 1009.9 |
| 20260507092052 | 1 | 293 | 1.6 | 6.4 | 0.00 | 0.71 | 0.00 | 87 | 1009.9 |
| 20260507091547 | 1 | 274 | 1.6 | 12.9 | 0.00 | 0.71 | 0.00 | 87 | 1010.0 |
| 20260507091047 | 1 | 290 | 1.6 | 12.9 | 0.00 | 0.71 | 0.00 | 87 | 1010.0 |
| 20260507090547 | 1 | 271 | 0.0 | 8.0 | 0.00 | 0.71 | 0.00 | 87 | 1009.9 |
| 20260507090045 | 1 | 294 | 0.0 | 11.3 | 0.00 | 0.71 | 0.00 | 87 | 1009.9 |
| 20260507085546 | 1 | 297 | 1.6 | 12.9 | 0.00 | 0.71 | 0.00 | 87 | 1009.9 |
| 20260507085043 | 1 | 289 | 1.6 | 9.7 | 0.00 | 0.71 | 0.00 | 87 | 1009.8 |
| 20260507084542 | 1 | 292 | 3.2 | 8.0 | 0.00 | 0.71 | 0.00 | 87 | 1009.7 |
| 20260507084041 | 1 | 291 | 1.6 | 8.0 | 0.00 | 0.71 | 0.00 | 87 | 1009.7 |
| 20260507083544 | 2 | 303 | 0.0 | 12.9 | 0.00 | 0.71 | 0.00 | 87 | 1009.7 |
| 20260507083041 | 2 | 299 | 1.6 | 12.9 | 0.00 | 0.71 | 0.00 | 87 | 1009.7 |
| 20260507082540 | 2 | 297 | 1.6 | 12.9 | 0.00 | 0.71 | 0.00 | 87 | 1009.7 |
| 20260507082039 | 2 | 285 | 3.2 | 12.9 | 0.00 | 0.71 | 0.00 | 88 | 1009.8 |
| 20260507081537 | 2 | 274 | 4.8 | 12.9 | 0.00 | 0.71 | 0.00 | 88 | 1009.7 |
| 20260507081038 | 2 | 290 | 3.2 | 12.9 | 0.00 | 0.71 | 0.00 | 88 | 1009.7 |
| 20260507080536 | 2 | 280 | 0.0 | 6.4 | 0.00 | 0.71 | 0.00 | 88 | 1009.7 |
| 20260507080037 | 2 | 281 | 0.0 | 4.8 | 0.00 | 0.71 | 0.00 | 88 | 1009.6 |
| 20260507075535 | 2 | 293 | 0.0 | 6.4 | 0.00 | 0.71 | 0.00 | 88 | 1009.7 |
| 20260507075036 | 2 | 244 | 1.6 | 9.7 | 0.00 | 0.71 | 0.00 | 88 | 1009.7 |
| 20260507074537 | 2 | 292 | 3.2 | 12.9 | 0.00 | 0.71 | 0.00 | 88 | 1009.6 |
| 20260507074033 | 2 | 308 | 3.2 | 14.5 | 0.00 | 0.71 | 0.00 | 88 | 1009.7 |
| 20260507073536 | 2 | 306 | 1.6 | 17.7 | 0.00 | 0.71 | 0.00 | 89 | 1009.7 |
| 20260507073032 | 3 | 285 | 9.7 | 17.7 | 0.00 | 0.71 | 0.00 | 89 | 1009.5 |
| 20260507072532 | 3 | 315 | 3.2 | 16.1 | 0.00 | 0.71 | 0.00 | 89 | 1009.6 |
| 20260507072031 | 3 | 279 | 9.7 | 17.7 | 0.00 | 0.71 | 0.00 | 90 | 1009.5 |
| 20260507071531 | 3 | 248 | 8.0 | 19.3 | 0.00 | 0.71 | 0.00 | 90 | 1009.6 |
| 20260507071028 | 3 | 300 | 11.3 | 19.3 | 0.00 | 0.71 | 0.00 | 91 | 1009.5 |
| 20260507070528 | 3 | 287 | 6.4 | 12.9 | 0.00 | 0.71 | 0.00 | 91 | 1009.4 |
| 20260507070031 | 3 | 290 | 4.8 | 9.7 | 0.00 | 0.71 | 0.00 | 91 | 1009.5 |
| 20260507065529 | 3 | 270 | 1.6 | 4.8 | 0.00 | 0.71 | 0.00 | 91 | 1009.6 |
| 20260507065027 | 3 | 293 | 0.0 | 6.4 | 0.00 | 0.71 | 0.00 | 91 | 1009.6 |
| 20260507064526 | 3 | 293 | 0.0 | 12.9 | 0.00 | 0.71 | 0.00 | 91 | 1009.6 |
| 20260507064026 | 3 | 285 | 4.8 | 12.9 | 0.00 | 0.71 | 0.00 | 91 | 1009.4 |
| 20260507063526 | 3 | 288 | 4.8 | 12.9 | 0.00 | 0.71 | 0.00 | 91 | 1009.3 |
| 20260507063036 | 3 | 294 | 6.4 | 14.5 | 0.00 | 0.71 | 0.00 | 91 | 1009.3 |
| 20260507062524 | 3 | 308 | 6.4 | 20.9 | 0.00 | 0.71 | 0.00 | 91 | 1009.2 |
| 20260507062024 | 3 | 295 | 11.3 | 20.9 | 0.00 | 0.71 | 0.00 | 91 | 1009.0 |
| 20260507061526 | 3 | 269 | 11.3 | 27.4 | 0.00 | 0.71 | 0.00 | 91 | 1009.1 |
| 20260507061023 | 3 | 312 | 17.7 | 30.6 | 0.00 | 0.71 | 0.00 | 91 | 1009.3 |
| 20260507060522 | 3 | 280 | 17.7 | 32.2 | 0.00 | 0.71 | 0.00 | 91 | 1009.3 |
| 20260507060035 | 3 | 299 | 20.9 | 32.2 | 0.00 | 0.71 | 0.00 | 91 | 1009.3 |
| 20260507055520 | 4 | 278 | 14.5 | 22.5 | 0.00 | 0.71 | 0.00 | 92 | 1009.2 |
| 20260507055018 | 4 | 331 | 8.0 | 16.1 | 0.00 | 0.71 | 0.00 | 92 | 1009.1 |
| 20260507054517 | 4 | 306 | 4.8 | 11.3 | 0.00 | 0.71 | 0.00 | 92 | 1009.1 |
| 20260507054017 | 5 | 313 | 4.8 | 17.7 | 0.00 | 0.71 | 0.00 | 92 | 1009.2 |
| 20260507053517 | 5 | 314 | 6.4 | 17.7 | 0.00 | 0.71 | 0.00 | 92 | 1009.2 |
| 20260507053016 | 5 | 309 | 4.8 | 16.1 | 0.00 | 0.71 | 0.00 | 92 | 1009.2 |
| 20260507052515 | 5 | 313 | 4.8 | 9.7 | 0.00 | 0.71 | 0.00 | 92 | 1009.2 |
| 20260507052014 | 5 | 294 | 1.6 | 12.9 | 0.00 | 0.71 | 0.00 | 92 | 1009.4 |
| 20260507051514 | 5 | 263 | 4.8 | 12.9 | 0.00 | 0.71 | 0.00 | 92 | 1009.3 |
| 20260507051015 | 5 | 298 | 1.6 | 11.3 | 0.00 | 0.71 | 0.00 | 92 | 1009.3 |
| 20260507050514 | 5 | 234 | 1.6 | 6.4 | 0.00 | 0.71 | 0.00 | 92 | 1009.4 |
| 20260507050012 | 5 | 290 | 1.6 | 6.4 | 0.00 | 0.71 | 0.00 | 92 | 1009.4 |
| 20260507045511 | 5 | 300 | 1.6 | 6.4 | 0.00 | 0.71 | 0.00 | 92 | 1009.3 |
| 20260507045011 | 5 | 302 | 1.6 | 6.4 | 0.00 | 0.71 | 0.00 | 92 | 1009.1 |
| 20260507044514 | 5 | 301 | 0.0 | 4.8 | 0.00 | 0.71 | 0.00 | 93 | 1009.2 |
| 20260507044009 | 5 | 309 | 0.0 | 6.4 | 0.00 | 0.71 | 0.00 | 93 | 1009.1 |
| 20260507043508 | 5 | 310 | 3.2 | 6.4 | 0.00 | 0.71 | 0.00 | 93 | 1009.0 |
| 20260507043008 | 5 | 297 | 1.6 | 3.2 | 0.00 | 0.71 | 0.00 | 93 | 1008.9 |
| 20260507042511 | 5 | 297 | 0.0 | 3.2 | 0.00 | 0.71 | 0.00 | 92 | 1009.0 |
| 20260507042006 | 5 | 297 | 0.0 | 1.6 | 0.00 | 0.71 | 0.00 | 92 | 1009.0 |
| 20260507041506 | 5 | 297 | 0.0 | 1.6 | 0.00 | 0.71 | 0.00 | 93 | 1009.1 |
| 20260507041005 | 4 | 297 | 0.0 | 4.8 | 0.00 | 0.71 | 0.00 | 93 | 1008.9 |
| 20260507040504 | 4 | 297 | 1.6 | 6.4 | 0.00 | 0.71 | 0.00 | 93 | 1008.9 |
| 20260507040006 | 4 | 297 | 1.6 | 6.4 | 0.00 | 0.71 | 0.00 | 93 | 1008.9 |
| 20260507035502 | 5 | 286 | 0.0 | 4.8 | 0.00 | 0.71 | 0.71 | 93 | 1009.2 |
| 20260507035003 | 5 | 290 | 0.0 | 3.2 | 0.00 | 0.71 | 0.71 | 93 | 1009.3 |
| 20260507034506 | 5 | 290 | 0.0 | 8.0 | 0.00 | 0.71 | 0.71 | 93 | 1009.3 |
| 20260507034004 | 4 | 290 | 1.6 | 8.0 | 0.00 | 0.71 | 0.71 | 93 | 1009.1 |
| 20260507033504 | 4 | 284 | 3.2 | 8.0 | 0.00 | 0.71 | 0.71 | 93 | 1009.0 |
| 20260507033002 | 4 | 306 | 0.0 | 3.2 | 0.00 | 0.71 | 0.71 | 93 | 1009.1 |
| 20260507032501 | 4 | 306 | 0.0 | 6.4 | 0.00 | 0.71 | 0.71 | 93 | 1009.0 |
| 20260507032000 | 4 | 307 | 1.6 | 6.4 | 0.00 | 0.71 | 0.71 | 93 | 1008.9 |
| 20260507031502 | 4 | 312 | 1.6 | 6.4 | 0.00 | 0.71 | 0.71 | 93 | 1008.9 |
| 20260507031001 | 4 | 290 | 1.6 | 4.8 | 0.00 | 0.71 | 0.71 | 93 | 1009.0 |
| 20260507030501 | 4 | 293 | 0.0 | 4.8 | 0.00 | 0.71 | 0.71 | 93 | 1008.9 |
| 20260507030101 | 5 | 292 | 0.0 | 4.8 | 0.00 | 0.71 | 0.71 | 93 | 1008.9 |
| 20260507025602 | 5 | 299 | 0.0 | 3.2 | 0.00 | 0.71 | 0.71 | 93 | 1009.2 |
| 20260507025100 | 5 | 299 | 0.0 | 6.4 | 0.00 | 0.71 | 0.71 | 93 | 1009.1 |
| 20260507024600 | 5 | 299 | 3.2 | 6.4 | 0.00 | 0.71 | 0.71 | 93 | 1008.9 |
| 20260507024059 | 5 | 267 | 0.0 | 6.4 | 0.00 | 0.71 | 0.71 | 93 | 1009.1 |
| 20260507023601 | 5 | 294 | 1.6 | 6.4 | 0.00 | 0.71 | 0.71 | 93 | 1009.1 |
| 20260507023059 | 5 | 273 | 1.6 | 8.0 | 0.00 | 0.71 | 0.71 | 93 | 1009.3 |
| 20260507022601 | 5 | 301 | 1.6 | 6.4 | 0.00 | 0.71 | 0.71 | 93 | 1009.1 |
| 20260507022059 | 5 | 299 | 0.0 | 11.3 | 0.03 | 0.71 | 0.71 | 93 | 1009.1 |
| 20260507021600 | 5 | 293 | 3.2 | 9.7 | 0.03 | 0.71 | 0.71 | 93 | 1009.2 |
| 20260507021058 | 5 | 265 | 0.0 | 6.4 | 0.03 | 0.71 | 0.71 | 93 | 1009.5 |
| 20260507020600 | 5 | 265 | 0.0 | 6.4 | 0.03 | 0.71 | 0.71 | 93 | 1009.4 |
| 20260507020059 | 5 | 246 | 0.0 | 8.0 | 0.03 | 0.71 | 0.71 | 93 | 1009.3 |
| 20260507015557 | 5 | 270 | 0.0 | 6.4 | 0.03 | 0.71 | 0.71 | 93 | 1009.5 |
| 20260507015057 | 5 | 285 | 1.6 | 8.0 | 0.03 | 0.71 | 0.71 | 93 | 1009.5 |
| 20260507014602 | 5 | 299 | 1.6 | 8.0 | 0.03 | 0.71 | 0.71 | 93 | 1009.4 |
| 20260507014057 | 5 | 227 | 0.0 | 4.8 | 0.03 | 0.71 | 0.71 | 93 | 1009.5 |
| 20260507013556 | 5 | 288 | 0.0 | 4.8 | 0.03 | 0.71 | 0.71 | 93 | 1009.1 |
| 20260507013116 | 5 | 288 | 0.0 | 6.4 | 0.03 | 0.71 | 0.71 | 93 | 1009.3 |
| 20260507012556 | 5 | 273 | 1.6 | 4.8 | 0.03 | 0.71 | 0.71 | 93 | 1009.3 |
| 20260507012056 | 5 | 290 | 0.0 | 6.4 | 0.00 | 0.69 | 0.69 | 93 | 1009.0 |
| 20260507011603 | 5 | 292 | 0.0 | 6.4 | 0.00 | 0.69 | 0.69 | 93 | 1009.2 |
| 20260507011054 | 5 | 281 | 0.0 | 6.4 | 0.00 | 0.69 | 0.69 | 93 | 1009.2 |
| 20260507010554 | 5 | 286 | 0.0 | 4.8 | 0.00 | 0.69 | 0.69 | 93 | 1009.3 |
| 20260507010104 | 5 | 291 | 1.6 | 4.8 | 0.00 | 0.69 | 0.69 | 93 | 1009.2 |
| 20260507005555 | 5 | 294 | 0.0 | 8.0 | 0.00 | 0.69 | 0.69 | 93 | 1009.2 |
| 20260507005053 | 5 | 294 | 1.6 | 8.0 | 0.00 | 0.69 | 0.69 | 93 | 1009.0 |
| 20260507004552 | 5 | 283 | 0.0 | 4.8 | 0.00 | 0.69 | 0.69 | 93 | 1008.9 |
| 20260507004053 | 5 | 290 | 0.0 | 4.8 | 0.00 | 0.69 | 0.69 | 93 | 1008.6 |
| 20260507003550 | 5 | 252 | 0.0 | 6.4 | 0.00 | 0.69 | 0.69 | 93 | 1008.5 |
| 20260507003049 | 5 | 295 | 0.0 | 6.4 | 0.00 | 0.69 | 0.69 | 93 | 1008.4 |
| 20260507002548 | 5 | 237 | 0.0 | 4.8 | 0.00 | 0.69 | 0.69 | 93 | 1008.4 |
| 20260507002048 | 5 | 238 | 0.0 | 9.7 | 0.00 | 0.69 | 0.69 | 93 | 1008.3 |
| 20260507001551 | 5 | 290 | 0.0 | 9.7 | 0.00 | 0.69 | 0.69 | 93 | 1008.1 |
| 20260507001047 | 5 | 273 | 4.8 | 11.3 | 0.00 | 0.69 | 0.69 | 93 | 1008.2 |
| 20260507000549 | 5 | 285 | 0.0 | 11.3 | 0.00 | 0.69 | 0.69 | 93 | 1008.4 |
| 20260507000046 | 5 | 288 | 0.0 | 16.1 | 0.00 | 0.69 | 0.69 | 93 | 1008.3 |
| 20260506235545 | 5 | 273 | 8.0 | 16.1 | 0.00 | 0.69 | 0.69 | 93 | 1008.1 |
| 20260506235044 | 5 | 287 | 4.8 | 14.5 | 0.00 | 0.69 | 0.69 | 93 | 1008.1 |
| 20260506234545 | 5 | 329 | 6.4 | 17.7 | 0.00 | 0.69 | 0.69 | 93 | 1008.1 |
| 20260506234043 | 5 | 285 | 9.7 | 17.7 | 0.00 | 0.69 | 0.69 | 93 | 1008.0 |
| 20260506233544 | 5 | 302 | 9.7 | 22.5 | 0.00 | 0.69 | 0.69 | 93 | 1007.9 |
| 20260506233055 | 5 | 290 | 9.7 | 22.5 | 0.00 | 0.69 | 0.69 | 93 | 1007.6 |
| 20260506232539 | 5 | 325 | 12.9 | 22.5 | 0.00 | 0.69 | 0.69 | 93 | 1007.4 |
| 20260506232041 | 5 | 289 | 12.9 | 19.3 | 0.00 | 0.69 | 0.69 | 93 | 1007.5 |
| 20260506231540 | 5 | 288 | 9.7 | 22.5 | 0.00 | 0.69 | 0.69 | 93 | 1007.6 |
| 20260506231039 | 5 | 262 | 8.0 | 22.5 | 0.00 | 0.69 | 0.69 | 93 | 1007.6 |
| 20260506230536 | 6 | 272 | 8.0 | 25.7 | 0.00 | 0.69 | 0.69 | 93 | 1007.4 |
| 20260506230037 | 6 | 284 | 14.5 | 25.7 | 0.00 | 0.69 | 0.69 | 93 | 1007.1 |
| 20260506225540 | 6 | 296 | 11.3 | 22.5 | 0.03 | 0.69 | 0.69 | 93 | 1007.3 |
| 20260506225038 | 6 | 311 | 12.9 | 25.7 | 0.03 | 0.69 | 0.69 | 93 | 1007.0 |
| 20260506224536 | 6 | 295 | 16.1 | 25.7 | 0.03 | 0.69 | 0.69 | 93 | 1007.0 |
| 20260506224035 | 6 | 292 | 11.3 | 24.1 | 0.03 | 0.69 | 0.69 | 93 | 1007.0 |
| 20260506223536 | 6 | 279 | 9.7 | 29.0 | 0.03 | 0.69 | 0.69 | 93 | 1007.0 |
| 20260506223034 | 6 | 297 | 11.3 | 22.5 | 0.03 | 0.69 | 0.69 | 93 | 1006.9 |
| 20260506222534 | 6 | 298 | 9.7 | 22.5 | 0.03 | 0.69 | 0.69 | 93 | 1006.9 |
| 20260506222035 | 6 | 292 | 12.9 | 24.1 | 0.03 | 0.69 | 0.69 | 93 | 1006.9 |
| 20260506221533 | 6 | 320 | 12.9 | 27.4 | 0.03 | 0.69 | 0.69 | 93 | 1006.8 |
| 20260506221032 | 6 | 285 | 14.5 | 27.4 | 0.03 | 0.69 | 0.69 | 93 | 1006.8 |
| 20260506220534 | 6 | 263 | 17.7 | 27.4 | 0.03 | 0.69 | 0.69 | 93 | 1006.8 |
| 20260506220032 | 6 | 291 | 12.9 | 30.6 | 0.03 | 0.69 | 0.69 | 93 | 1006.8 |
| 20260506215531 | 6 | 289 | 17.7 | 30.6 | 0.00 | 0.66 | 0.66 | 93 | 1006.6 |
| 20260506215031 | 6 | 296 | 14.5 | 24.1 | 0.00 | 0.66 | 0.66 | 93 | 1006.6 |
| 20260506214531 | 6 | 290 | 14.5 | 22.5 | 0.00 | 0.66 | 0.66 | 93 | 1006.5 |
| 20260506214030 | 6 | 286 | 11.3 | 24.1 | 0.00 | 0.66 | 0.66 | 93 | 1006.5 |
| 20260506213530 | 6 | 286 | 12.9 | 29.0 | 0.00 | 0.66 | 0.66 | 93 | 1006.4 |
| 20260506213030 | 6 | 281 | 14.5 | 29.0 | 0.03 | 0.66 | 0.66 | 93 | 1006.3 |
| 20260506212531 | 6 | 273 | 12.9 | 27.4 | 0.03 | 0.66 | 0.66 | 93 | 1006.2 |
| 20260506212130 | 6 | 306 | 11.3 | 22.5 | 0.03 | 0.66 | 0.66 | 93 | 1006.2 |
| 20260506211530 | 6 | 298 | 12.9 | 22.5 | 0.03 | 0.66 | 0.66 | 93 | 1006.0 |
| 20260506211029 | 6 | 285 | 11.3 | 22.5 | 0.03 | 0.66 | 0.66 | 93 | 1005.9 |
| 20260506210527 | 6 | 317 | 11.3 | 19.3 | 0.05 | 0.66 | 0.66 | 93 | 1005.9 |
| 20260506210034 | 6 | 296 | 11.3 | 19.3 | 0.05 | 0.66 | 0.66 | 93 | 1005.9 |
| 20260506205529 | 6 | 288 | 11.3 | 20.9 | 0.05 | 0.66 | 0.66 | 93 | 1005.9 |
| 20260506205027 | 6 | 296 | 9.7 | 22.5 | 0.08 | 0.66 | 0.66 | 93 | 1005.8 |
| 20260506204527 | 6 | 313 | 11.3 | 22.5 | 0.08 | 0.66 | 0.66 | 93 | 1005.6 |
| 20260506204027 | 6 | 296 | 8.0 | 17.7 | 0.08 | 0.66 | 0.66 | 93 | 1005.8 |
| 20260506203529 | 6 | 297 | 9.7 | 17.7 | 0.10 | 0.66 | 0.66 | 93 | 1005.8 |
| 20260506203027 | 6 | 303 | 8.0 | 20.9 | 0.08 | 0.64 | 0.64 | 93 | 1005.7 |
| 20260506202527 | 6 | 290 | 11.3 | 20.9 | 0.08 | 0.64 | 0.64 | 93 | 1005.7 |
| 20260506202026 | 6 | 298 | 8.0 | 16.1 | 0.08 | 0.64 | 0.64 | 93 | 1005.7 |
| 20260506201530 | 6 | 296 | 9.7 | 17.7 | 0.08 | 0.64 | 0.64 | 93 | 1005.6 |